• En Colombia
  • Lista de países
  • Para 7 días
  • Temperatura del agua
  • El tiempo en el mapa
  • Informadores
  • user-avatar
    Iniciar sesión

    Tiempo cada hora Risan

    Hoy, 6 Diciembre, Viernes

    Tiempo Temperatura Precipitaciones Viento Presión Humedad
    00:00 +7°C° 0 mm 2 mps 763 mmHg 79%
    01:00 +7°C° 0 mm 3 mps 763 mmHg 79%
    02:00 +8°C° 0 mm 2 mps 762 mmHg 80%
    03:00 +8°C° 0 mm 2 mps 762 mmHg 80%
    04:00 +8°C° 0 mm 2 mps 762 mmHg 81%
    05:00 +8°C° 0 mm 2 mps 762 mmHg 82%
    06:00 +8°C° 0 mm 2 mps 762 mmHg 82%
    07:00 +9°C° 0 mm 2 mps 762 mmHg 83%
    08:00 +10°C° 0 mm 2 mps 762 mmHg 81%
    09:00 +12°C° 0 mm 1 mps 762 mmHg 78%
    10:00 +14°C° 0 mm 1 mps 762 mmHg 76%
    11:00 +14°C° 0 mm 1 mps 761 mmHg 76%
    12:00 +15°C° 0 mm 1 mps 761 mmHg 76%
    13:00 +15°C° 0 mm 1 mps 760 mmHg 75%
    14:00 +15°C° 0.1 mm 2 mps 760 mmHg 79%
    15:00 +14°C° 0.1 mm 2 mps 760 mmHg 83%
    16:00 +13°C° 0.1 mm 2 mps 760 mmHg 87%
    17:00 +13°C° 0.7 mm 2 mps 759 mmHg 89%
    18:00 +12°C° 0.7 mm 2 mps 759 mmHg 91%
    19:00 +11°C° 0.7 mm 3 mps 759 mmHg 93%
    20:00 +11°C° 0.9 mm 3 mps 759 mmHg 94%
    21:00 +11°C° 0.9 mm 3 mps 759 mmHg 94%
    22:00 +11°C° 0.9 mm 3 mps 758 mmHg 94%
    23:00 +13°C° 1.2 mm 2 mps 758 mmHg 95%

    Mañana, 7 Diciembre, Sábado

    Tiempo Temperatura Precipitaciones Viento Presión Humedad
    00:00 +13°C° 1.2 mm 2 mps 758 mmHg 95%
    01:00 +13°C° 1.2 mm 2 mps 757 mmHg 95%
    02:00 +13°C° 0.9 mm 2 mps 757 mmHg 96%
    03:00 +13°C° 0.9 mm 2 mps 757 mmHg 96%
    04:00 +13°C° 0.9 mm 2 mps 756 mmHg 96%
    05:00 +13°C° 1.2 mm 2 mps 756 mmHg 96%
    06:00 +13°C° 1.2 mm 2 mps 756 mmHg 96%
    07:00 +13°C° 1.2 mm 2 mps 757 mmHg 95%
    08:00 +14°C° 0.1 mm 1 mps 757 mmHg 91%
    09:00 +14°C° 0.1 mm 1 mps 757 mmHg 86%
    10:00 +15°C° 0.1 mm 1 mps 757 mmHg 82%
    11:00 +16°C° 0.1 mm 1 mps 756 mmHg 79%
    12:00 +16°C° 0.1 mm 2 mps 756 mmHg 77%
    13:00 +16°C° 0.1 mm 2 mps 756 mmHg 75%
    14:00 +16°C° 0.1 mm 2 mps 756 mmHg 79%
    15:00 +15°C° 0.1 mm 2 mps 756 mmHg 84%
    16:00 +14°C° 0.1 mm 2 mps 756 mmHg 88%
    17:00 +13°C° 0 mm 2 mps 756 mmHg 89%
    18:00 +13°C° 0 mm 2 mps 756 mmHg 89%
    19:00 +12°C° 0 mm 2 mps 757 mmHg 89%
    20:00 +12°C° 0 mm 2 mps 757 mmHg 89%
    21:00 +12°C° 0 mm 2 mps 757 mmHg 89%
    22:00 +12°C° 0 mm 2 mps 757 mmHg 88%
    23:00 +12°C° 0.1 mm 2 mps 757 mmHg 87%

    Pasado mañana, 8 Diciembre, Domingo

    Tiempo Temperatura Precipitaciones Viento Presión Humedad
    00:00 +12°C° 0.1 mm 2 mps 757 mmHg 86%
    01:00 +12°C° 0.1 mm 2 mps 757 mmHg 85%
    02:00 +12°C° 0 mm 2 mps 757 mmHg 86%
    03:00 +10°C° 0 mm 2 mps 756 mmHg 86%
    04:00 +10°C° 0 mm 2 mps 756 mmHg 86%
    05:00 +10°C° 0 mm 2 mps 757 mmHg 86%
    06:00 +10°C° 0 mm 2 mps 757 mmHg 86%
    07:00 +9°C° 0 mm 2 mps 757 mmHg 86%
    08:00 +12°C° 0 mm 2 mps 757 mmHg 82%
    09:00 +13°C° 0 mm 1 mps 758 mmHg 78%
    10:00 +14°C° 0 mm 1 mps 758 mmHg 74%
    11:00 +15°C° 0 mm 1 mps 757 mmHg 72%
    12:00 +15°C° 0 mm 1 mps 757 mmHg 69%
    13:00 +16°C° 0 mm 1 mps 757 mmHg 67%
    14:00 +15°C° 0 mm 1 mps 757 mmHg 74%
    15:00 +14°C° 0 mm 1 mps 756 mmHg 80%
    16:00 +12°C° 0 mm 0 mps 756 mmHg 87%
    17:00 +11°C° 0 mm 0 mps 757 mmHg 87%
    18:00 +12°C° 0 mm 1 mps 757 mmHg 88%
    19:00 +11°C° 0 mm 1 mps 757 mmHg 88%
    20:00 +11°C° 0 mm 1 mps 757 mmHg 88%
    21:00 +11°C° 0 mm 1 mps 757 mmHg 88%
    22:00 +11°C° 0 mm 1 mps 757 mmHg 87%
    23:00 +10°C° 0 mm 1 mps 756 mmHg 87%

    9 Diciembre, Lunes

    Tiempo Temperatura Precipitaciones Viento Presión Humedad
    00:00 +10°C° 0 mm 1 mps 756 mmHg 87%
    01:00 +9°C° 0 mm 2 mps 756 mmHg 87%
    02:00 +9°C° 0 mm 2 mps 756 mmHg 87%
    03:00 +9°C° 0 mm 2 mps 755 mmHg 88%
    04:00 +9°C° 0 mm 2 mps 755 mmHg 88%
    05:00 +9°C° 0.1 mm 2 mps 754 mmHg 89%
    06:00 +9°C° 0.1 mm 3 mps 754 mmHg 89%
    07:00 +9°C° 0.1 mm 3 mps 754 mmHg 90%
    08:00 +9°C° 0.2 mm 3 mps 754 mmHg 90%
    09:00 +10°C° 0.2 mm 3 mps 753 mmHg 91%
    10:00 +10°C° 0.2 mm 4 mps 753 mmHg 92%
    11:00 +11°C° 0.4 mm 4 mps 752 mmHg 93%
    12:00 +10°C° 0.4 mm 5 mps 751 mmHg 94%
    13:00 +10°C° 0.4 mm 5 mps 751 mmHg 95%
    14:00 +10°C° 0.5 mm 5 mps 750 mmHg 96%
    15:00 +10°C° 0.5 mm 5 mps 750 mmHg 96%
    16:00 +10°C° 0.5 mm 5 mps 749 mmHg 97%
    17:00 +11°C° 1.2 mm 6 mps 749 mmHg 96%
    18:00 +11°C° 1.2 mm 7 mps 748 mmHg 95%
    19:00 +11°C° 1.2 mm 8 mps 748 mmHg 95%
    20:00 +11°C° 0.9 mm 7 mps 748 mmHg 93%
    21:00 +11°C° 0.9 mm 6 mps 748 mmHg 91%
    22:00 +11°C° 0.9 mm 4 mps 748 mmHg 90%
    23:00 +11°C° 0.5 mm 3 mps 748 mmHg 90%

    10 Diciembre, Martes

    Tiempo Temperatura Precipitaciones Viento Presión Humedad
    00:00 +10°C° 0.5 mm 2 mps 748 mmHg 91%
    01:00 +11°C° 0.5 mm 1 mps 748 mmHg 91%
    02:00 +11°C° 0.6 mm 1 mps 748 mmHg 91%
    03:00 +11°C° 0.6 mm 1 mps 748 mmHg 91%
    04:00 +11°C° 0.6 mm 1 mps 748 mmHg 91%
    05:00 +10°C° 0.7 mm 2 mps 748 mmHg 92%
    06:00 +9°C° 0.7 mm 2 mps 748 mmHg 92%
    07:00 +9°C° 0.7 mm 2 mps 748 mmHg 93%
    08:00 +9°C° 1.2 mm 2 mps 748 mmHg 93%
    09:00 +9°C° 1.2 mm 2 mps 748 mmHg 94%
    10:00 +9°C° 1.2 mm 2 mps 749 mmHg 94%
    11:00 +8°C° 2 mm 4 mps 749 mmHg 93%
    12:00 +7°C° 2 mm 5 mps 749 mmHg 92%
    13:00 +5°C° 2 mm 6 mps 749 mmHg 92%
    14:00 +5°C° 0.9 mm 6 mps 749 mmHg 89%
    15:00 +5°C° 0.9 mm 6 mps 750 mmHg 87%
    16:00 +5°C° 0.9 mm 6 mps 750 mmHg 84%
    17:00 +6°C° 0.2 mm 5 mps 751 mmHg 83%
    18:00 +6°C° 0.2 mm 5 mps 751 mmHg 82%
    19:00 +6°C° 0.2 mm 4 mps 752 mmHg 81%
    20:00 +5°C° 0 mm 5 mps 753 mmHg 78%
    21:00 +4°C° 0 mm 6 mps 753 mmHg 76%
    22:00 +3°C° 0 mm 6 mps 754 mmHg 73%
    23:00 +3°C° 0 mm 6 mps 754 mmHg 73%

    11 Diciembre, Miércoles

    Tiempo Temperatura Precipitaciones Viento Presión Humedad
    00:00 +2°C° 0 mm 6 mps 754 mmHg 73%
    01:00 +2°C° 0 mm 6 mps 754 mmHg 73%
    02:00 +2°C° 0 mm 5 mps 754 mmHg 74%
    03:00 +1°C° 0 mm 5 mps 754 mmHg 74%
    04:00 +1°C° 0 mm 5 mps 754 mmHg 75%
    05:00 +1°C° 0 mm 5 mps 755 mmHg 75%
    06:00 +1°C° 0 mm 4 mps 755 mmHg 76%
    07:00 +1°C° 0 mm 4 mps 755 mmHg 76%
    08:00 +3°C° 0 mm 4 mps 755 mmHg 73%
    09:00 +4°C° 0 mm 3 mps 756 mmHg 70%
    10:00 +5°C° 0 mm 3 mps 756 mmHg 68%
    11:00 +7°C° 0 mm 2 mps 755 mmHg 66%
    12:00 +8°C° 0 mm 2 mps 755 mmHg 64%
    13:00 +10°C° 0 mm 1 mps 754 mmHg 62%
    14:00 +10°C° 0 mm 1 mps 754 mmHg 66%
    15:00 +9°C° 0 mm 1 mps 754 mmHg 69%
    16:00 +8°C° 0 mm 1 mps 754 mmHg 73%
    17:00 +8°C° 0 mm 1 mps 754 mmHg 73%
    18:00 +7°C° 0 mm 1 mps 754 mmHg 72%
    19:00 +7°C° 0 mm 1 mps 754 mmHg 71%
    20:00 +7°C° 0 mm 1 mps 754 mmHg 70%
    21:00 +7°C° 0 mm 1 mps 754 mmHg 68%
    22:00 +7°C° 0 mm 1 mps 754 mmHg 67%
    23:00 +7°C° 0 mm 1 mps 754 mmHg 67%
    Mostrar más